Time,TemperatureF,DewpointF,PressureIn,WindDirection,WindDirectionDegrees,WindSpeedMPH,WindSpeedGustMPH,Humidity,HourlyPrecipIn,Conditions,Clouds,dailyrainin,SoftwareType,DateUTC
2013-06-12 00:01:00,75.2,67.5,29.75,NNE,13,0.0,1.0,77,0.00,,FEW035,0.00,VWS V14.01,2013-06-12 05:01:00,
2013-06-12 00:06:00,75.2,67.5,29.74,NNE,16,0.0,1.0,77,0.00,,FEW035,0.00,VWS V14.01,2013-06-12 05:06:00,
2013-06-12 00:11:00,75.2,67.5,29.74,East,92,1.0,1.0,77,0.00,,FEW035,0.00,VWS V14.01,2013-06-12 05:11:00,
2013-06-12 00:16:00,75.1,67.4,29.74,North,350,2.0,3.0,77,0.00,,FEW035,0.00,VWS V14.01,2013-06-12 05:16:00,
2013-06-12 00:21:00,75.0,67.3,29.75,NNW,342,2.0,3.0,77,0.00,,FEW035,0.00,VWS V14.01,2013-06-12 05:21:00,
2013-06-12 00:26:00,74.9,67.6,29.75,North,355,0.0,4.0,78,0.00,,FEW035,0.00,VWS V14.01,2013-06-12 05:26:00,
2013-06-12 00:32:00,74.7,67.8,29.74,ESE,110,0.0,0.0,79,0.00,,FEW035,0.00,VWS V14.01,2013-06-12 05:32:00,
2013-06-12 00:37:00,74.5,67.6,29.74,ESE,109,0.0,0.0,79,0.00,,FEW035,0.00,VWS V14.01,2013-06-12 05:37:00,
2013-06-12 00:41:00,74.5,67.6,29.74,East,96,1.0,2.0,79,0.00,,FEW035,0.00,VWS V14.01,2013-06-12 05:41:00,
2013-06-12 00:46:00,74.8,68.2,29.75,SE,136,0.0,2.0,80,0.00,,FEW035,0.00,VWS V14.01,2013-06-12 05:46:00,
2013-06-12 00:51:00,74.6,67.7,29.75,SE,136,0.0,2.0,79,0.00,,FEW035,0.00,VWS V14.01,2013-06-12 05:51:00,
2013-06-12 00:56:00,74.4,67.8,29.75,ESE,106,0.0,2.0,80,0.00,,FEW035,0.00,VWS V14.01,2013-06-12 05:56:00,
2013-06-12 01:02:00,74.7,67.8,29.74,East,98,4.0,5.0,79,0.00,,SCT039,0.00,VWS V14.01,2013-06-12 06:02:00,
2013-06-12 01:07:00,74.8,67.9,29.72,ESE,103,9.0,9.0,79,0.00,,SCT039,0.00,VWS V14.01,2013-06-12 06:07:00,
2013-06-12 01:12:00,74.7,67.8,29.72,ESE,113,6.0,10.0,79,0.00,,SCT039,0.00,VWS V14.01,2013-06-12 06:12:00,
2013-06-12 01:17:00,74.5,67.6,29.72,ENE,67,0.0,10.0,79,0.00,,SCT039,0.00,VWS V14.01,2013-06-12 06:17:00,
2013-06-12 01:22:00,74.1,67.5,29.73,ENE,57,0.0,10.0,80,0.00,,SCT039,0.00,VWS V14.01,2013-06-12 06:22:00,
2013-06-12 01:27:00,73.8,67.2,29.74,North,6,2.0,10.0,80,0.00,,SCT039,0.00,VWS V14.01,2013-06-12 06:27:00,
2013-06-12 01:32:00,73.6,67.4,29.75,NNE,18,1.0,5.0,81,0.00,,SCT039,0.00,VWS V14.01,2013-06-12 06:32:00,
2013-06-12 01:37:00,73.3,67.1,29.75,NNW,346,5.0,5.0,81,0.00,,SCT039,0.00,VWS V14.01,2013-06-12 06:37:00,
2013-06-12 01:42:00,72.9,66.7,29.74,NE,46,0.0,6.0,81,0.00,,SCT039,0.00,VWS V14.01,2013-06-12 06:42:00,
2013-06-12 01:47:00,72.3,66.8,29.74,NE,48,0.0,6.0,83,0.00,,SCT039,0.00,VWS V14.01,2013-06-12 06:47:00,
2013-06-12 01:52:00,71.9,66.8,29.75,NNE,19,0.0,6.0,84,0.00,,SCT039,0.00,VWS V14.01,2013-06-12 06:52:00,
2013-06-12 01:57:00,71.6,66.9,29.75,SSW,209,0.0,6.0,85,0.00,,SCT039,0.00,VWS V14.01,2013-06-12 06:57:00,
2013-06-12 02:02:00,71.4,67.0,29.75,North,4,1.0,4.0,86,0.00,,BKN031,0.00,VWS V14.01,2013-06-12 07:02:00,
2013-06-12 02:07:00,71.3,66.9,29.75,NNE,13,0.0,4.0,86,0.00,,BKN031,0.00,VWS V14.01,2013-06-12 07:07:00,
2013-06-12 02:12:00,71.3,67.2,29.75,NE,56,0.0,4.0,87,0.00,,BKN031,0.00,VWS V14.01,2013-06-12 07:12:00,
2013-06-12 02:17:00,71.1,67.0,29.74,NNE,15,0.0,4.0,87,0.00,,BKN031,0.00,VWS V14.01,2013-06-12 07:17:00,
2013-06-12 02:22:00,70.9,67.2,29.74,NE,49,0.0,4.0,88,0.00,,BKN031,0.00,VWS V14.01,2013-06-12 07:22:00,
2013-06-12 02:27:00,70.6,67.2,29.74,ENE,62,0.0,4.0,89,0.00,,BKN031,0.00,VWS V14.01,2013-06-12 07:27:00,
2013-06-12 02:32:00,70.5,67.1,29.74,NE,48,0.0,0.0,89,0.00,,BKN031,0.00,VWS V14.01,2013-06-12 07:32:00,
2013-06-12 02:37:00,70.4,67.0,29.74,ENE,70,0.0,1.0,89,0.00,,BKN031,0.00,VWS V14.01,2013-06-12 07:37:00,
2013-06-12 02:42:00,70.3,67.2,29.74,SE,125,0.0,1.0,90,0.00,,BKN031,0.00,VWS V14.01,2013-06-12 07:42:00,
2013-06-12 02:47:00,70.3,67.2,29.74,ENE,72,0.0,1.0,90,0.00,,BKN031,0.00,VWS V14.01,2013-06-12 07:47:00,
2013-06-12 02:52:00,70.3,67.2,29.74,ENE,68,0.0,1.0,90,0.00,,BKN031,0.00,VWS V14.01,2013-06-12 07:52:00,
2013-06-12 02:57:00,70.3,67.2,29.74,ENE,68,0.0,1.0,90,0.00,,BKN031,0.00,VWS V14.01,2013-06-12 07:57:00,
2013-06-12 03:02:00,70.2,67.1,29.73,ESE,113,0.0,1.0,90,0.00,,CLR,0.00,VWS V14.01,2013-06-12 08:02:00,
2013-06-12 03:07:00,70.3,67.2,29.73,ENE,61,0.0,6.0,90,0.00,,CLR,0.00,VWS V14.01,2013-06-12 08:07:00,
2013-06-12 03:12:00,70.3,67.2,29.71,East,93,4.0,6.0,90,0.00,,CLR,0.00,VWS V14.01,2013-06-12 08:12:00,
2013-06-12 03:17:00,70.5,67.1,29.72,East,89,4.0,10.0,89,0.00,,CLR,0.00,VWS V14.01,2013-06-12 08:17:00,
2013-06-12 03:22:00,70.5,67.1,29.71,East,94,4.0,10.0,89,0.00,,CLR,0.00,VWS V14.01,2013-06-12 08:22:00,
2013-06-12 03:27:00,70.5,67.1,29.72,ESE,105,4.0,10.0,89,0.00,,CLR,0.00,VWS V14.01,2013-06-12 08:27:00,
2013-06-12 03:32:00,70.5,67.1,29.71,ESE,108,4.0,9.0,89,0.00,,CLR,0.00,VWS V14.01,2013-06-12 08:32:00,
2013-06-12 03:37:00,70.5,67.1,29.71,ESE,108,9.0,11.0,89,0.00,,CLR,0.00,VWS V14.01,2013-06-12 08:37:00,
2013-06-12 03:42:00,70.4,67.0,29.69,ESE,112,7.0,11.0,89,0.00,,CLR,0.00,VWS V14.01,2013-06-12 08:42:00,
2013-06-12 03:47:00,70.3,66.9,29.68,East,96,4.0,13.0,89,0.00,,CLR,0.00,VWS V14.01,2013-06-12 08:47:00,
2013-06-12 03:52:00,70.3,66.9,29.70,NE,51,2.0,13.0,89,0.00,,CLR,0.00,VWS V14.01,2013-06-12 08:52:00,
2013-06-12 03:57:00,70.2,67.1,29.71,NE,54,0.0,13.0,90,0.00,,CLR,0.00,VWS V14.01,2013-06-12 08:57:00,
2013-06-12 04:02:00,70.1,67.0,29.72,NE,53,0.0,0.0,90,0.00,,CLR,0.00,VWS V14.01,2013-06-12 09:02:00,
2013-06-12 04:07:00,70.0,66.9,29.73,NE,52,0.0,0.0,90,0.00,,CLR,0.00,VWS V14.01,2013-06-12 09:07:00,
2013-06-12 04:12:00,69.9,67.2,29.74,NNW,337,0.0,2.0,91,0.00,,CLR,0.00,VWS V14.01,2013-06-12 09:12:00,
2013-06-12 04:17:00,69.9,67.2,29.77,West,267,2.0,2.0,91,0.00,,CLR,0.00,VWS V14.01,2013-06-12 09:17:00,
2013-06-12 04:22:00,69.9,67.5,29.80,WNW,295,0.0,6.0,92,0.02,,CLR,0.02,VWS V14.01,2013-06-12 09:22:00,
2013-06-12 04:27:00,69.6,67.5,29.82,West,278,7.0,7.0,93,0.15,,CLR,0.15,VWS V14.01,2013-06-12 09:27:00,
2013-06-12 04:32:00,69.3,67.5,29.81,WNW,297,0.0,4.0,94,0.23,,CLR,0.23,VWS V14.01,2013-06-12 09:32:00,
2013-06-12 04:37:00,69.1,67.6,29.80,SE,126,6.0,8.0,95,0.25,,,0.25,VWS V14.01,2013-06-12 09:37:00,
2013-06-12 04:42:00,69.2,67.7,29.77,ESE,102,8.0,9.0,95,0.26,,,0.26,VWS V14.01,2013-06-12 09:42:00,
2013-06-12 04:47:00,69.4,67.6,29.77,ESE,106,2.0,9.0,94,0.28,,,0.28,VWS V14.01,2013-06-12 09:47:00,
2013-06-12 04:52:00,69.2,67.7,29.76,ESE,109,6.0,9.0,95,0.29,,,0.29,VWS V14.01,2013-06-12 09:52:00,
2013-06-12 04:57:00,69.3,67.8,29.76,ESE,113,12.0,13.0,95,0.29,,,0.29,VWS V14.01,2013-06-12 09:57:00,
2013-06-12 05:02:00,69.4,67.6,29.77,ESE,105,6.0,9.0,94,0.30,,,0.30,VWS V14.01,2013-06-12 10:02:00,
2013-06-12 05:07:00,69.3,67.8,29.76,ENE,77,3.0,9.0,95,0.31,,,0.31,VWS V14.01,2013-06-12 10:07:00,
2013-06-12 05:12:00,69.1,67.6,29.75,ENE,59,0.0,9.0,95,0.31,,-RA,0.31,VWS V14.01,2013-06-12 10:12:00,
2013-06-12 05:17:00,68.8,67.6,29.76,ENE,61,0.0,9.0,96,0.32,,-RA,0.32,VWS V14.01,2013-06-12 10:17:00,
2013-06-12 05:22:00,68.6,67.4,29.77,East,93,3.0,9.0,96,0.32,,-RA,0.32,VWS V14.01,2013-06-12 10:22:00,
2013-06-12 05:27:00,68.5,67.6,29.76,East,89,14.0,14.0,97,0.33,,-RA,0.33,VWS V14.01,2013-06-12 10:27:00,
2013-06-12 05:32:00,68.5,67.6,29.75,ESE,115,16.0,16.0,97,0.11,,-RA,0.33,VWS V14.01,2013-06-12 10:32:00,
2013-06-12 05:37:00,68.4,67.5,29.74,ESE,105,15.0,16.0,97,0.11,,-RA,0.33,VWS V14.01,2013-06-12 10:37:00,
2013-06-12 05:42:00,68.3,66.5,29.73,ESE,113,12.0,18.0,94,0.12,,-RA,0.34,VWS V14.01,2013-06-12 10:42:00,
2013-06-12 05:47:00,68.3,66.5,29.71,ESE,108,9.0,18.0,94,0.12,,-RA,0.34,VWS V14.01,2013-06-12 10:47:00,
2013-06-12 05:52:00,68.3,66.8,29.68,ESE,105,15.0,18.0,95,0.12,,-RA,0.34,VWS V14.01,2013-06-12 10:52:00,
2013-06-12 05:57:00,68.3,67.1,29.65,ENE,61,4.0,18.0,96,0.12,,-RA,0.34,VWS V14.01,2013-06-12 10:57:00,
2013-06-12 06:02:00,68.3,67.1,29.64,ESE,108,10.0,12.0,96,0.04,,-RA,0.34,VWS V14.01,2013-06-12 11:02:00,
2013-06-12 06:07:00,68.4,67.2,29.67,NE,56,3.0,16.0,96,0.04,,-RA,0.34,VWS V14.01,2013-06-12 11:07:00,
2013-06-12 06:12:00,68.3,67.1,29.67,ESE,117,12.0,16.0,96,0.04,,-RA,0.34,VWS V14.01,2013-06-12 11:12:00,
2013-06-12 06:17:00,68.3,67.1,29.66,ESE,105,9.0,16.0,96,0.04,,-RA,0.34,VWS V14.01,2013-06-12 11:17:00,
2013-06-12 06:22:00,68.3,66.8,29.67,ESE,113,8.0,18.0,95,0.04,,-RA,0.34,VWS V14.01,2013-06-12 11:22:00,
2013-06-12 06:27:00,68.3,66.8,29.65,East,98,13.0,20.0,95,0.04,,-RA,0.34,VWS V14.01,2013-06-12 11:27:00,
2013-06-12 06:32:00,68.3,66.8,29.65,East,99,22.0,22.0,95,0.01,,-RA,0.34,VWS V14.01,2013-06-12 11:32:00,
2013-06-12 06:37:00,68.1,66.6,29.65,ESE,103,15.0,24.0,95,0.01,,-RA,0.34,VWS V14.01,2013-06-12 11:37:00,
2013-06-12 06:42:00,68.0,66.5,29.65,ESE,108,13.0,24.0,95,0.01,,-RA,0.34,VWS V14.01,2013-06-12 11:42:00,
2013-06-12 06:47:00,67.9,66.7,29.65,East,96,12.0,24.0,96,0.01,,-RA,0.34,VWS V14.01,2013-06-12 11:47:00,
2013-06-12 06:52:00,67.8,66.6,29.65,ESE,104,7.0,24.0,96,0.01,,-RA,0.34,VWS V14.01,2013-06-12 11:52:00,
2013-06-12 06:57:00,67.9,66.7,29.66,ENE,65,3.0,24.0,96,0.01,,CLR,0.34,VWS V14.01,2013-06-12 11:57:00,
2013-06-12 07:02:00,68.0,66.8,29.67,East,94,6.0,12.0,96,0.00,,CLR,0.34,VWS V14.01,2013-06-12 12:02:00,
2013-06-12 07:07:00,68.1,66.6,29.67,ESE,104,6.0,16.0,95,0.00,,FEW008,0.34,VWS V14.01,2013-06-12 12:07:00,
2013-06-12 07:12:00,68.2,66.7,29.68,ESE,103,11.0,18.0,95,0.00,,FEW008,0.34,VWS V14.01,2013-06-12 12:12:00,
2013-06-12 07:17:00,68.2,66.7,29.69,ESE,107,11.0,18.0,95,0.00,,FEW008,0.34,VWS V14.01,2013-06-12 12:17:00,
2013-06-12 07:22:00,68.3,66.8,29.68,ESE,117,6.0,18.0,95,0.00,,FEW008,0.34,VWS V14.01,2013-06-12 12:22:00,
2013-06-12 07:27:00,68.4,67.2,29.67,SE,131,10.0,18.0,96,0.00,,FEW008,0.34,VWS V14.01,2013-06-12 12:27:00,
2013-06-12 07:32:00,68.6,67.1,29.67,ESE,116,15.0,15.0,95,0.00,,FEW008,0.34,VWS V14.01,2013-06-12 12:32:00,
2013-06-12 07:37:00,68.7,67.2,29.66,SSE,148,7.0,17.0,95,0.01,,FEW008,0.35,VWS V14.01,2013-06-12 12:37:00,
2013-06-12 07:42:00,68.7,67.2,29.67,SE,124,10.0,17.0,95,0.01,,FEW008,0.35,VWS V14.01,2013-06-12 12:42:00,
2013-06-12 07:47:00,68.7,67.2,29.66,ESE,116,10.0,17.0,95,0.01,,FEW008,0.35,VWS V14.01,2013-06-12 12:47:00,
2013-06-12 07:52:00,68.7,67.2,29.66,SE,134,12.0,17.0,95,0.01,,FEW008,0.35,VWS V14.01,2013-06-12 12:52:00,
2013-06-12 07:57:00,68.7,67.2,29.65,ESE,116,9.0,17.0,95,0.01,,FEW008,0.35,VWS V14.01,2013-06-12 12:57:00,
2013-06-12 08:02:00,68.8,67.3,29.66,ESE,115,10.0,13.0,95,0.01,,BKN009,0.35,VWS V14.01,2013-06-12 13:02:00,
2013-06-12 08:07:00,69.0,67.8,29.66,SE,129,11.0,14.0,96,0.01,,BKN009,0.35,VWS V14.01,2013-06-12 13:07:00,
2013-06-12 08:12:00,69.1,67.6,29.66,SE,126,11.0,14.0,95,0.01,,BKN009,0.35,VWS V14.01,2013-06-12 13:12:00,
2013-06-12 08:17:00,69.3,67.8,29.66,ESE,107,7.0,15.0,95,0.01,,BKN009,0.35,VWS V14.01,2013-06-12 13:17:00,
2013-06-12 08:22:00,69.8,68.3,29.66,ESE,113,11.0,15.0,95,0.01,,BKN009,0.35,VWS V14.01,2013-06-12 13:22:00,
2013-06-12 08:27:00,70.1,68.0,29.66,SE,142,10.0,15.0,93,0.01,,BKN009,0.35,VWS V14.01,2013-06-12 13:27:00,
2013-06-12 08:32:00,70.6,68.8,29.66,SE,146,8.0,13.0,94,0.01,,BKN009,0.35,VWS V14.01,2013-06-12 13:32:00,
2013-06-12 08:37:00,71.0,68.9,29.66,SSE,149,14.0,15.0,93,0.01,,BKN009,0.35,VWS V14.01,2013-06-12 13:37:00,
2013-06-12 08:42:00,71.3,68.9,29.66,SE,139,11.0,16.0,92,0.01,,BKN009,0.35,VWS V14.01,2013-06-12 13:42:00,
2013-06-12 08:47:00,71.7,68.6,29.67,SE,129,9.0,17.0,90,0.01,,FEW009,0.35,VWS V14.01,2013-06-12 13:47:00,
2013-06-12 08:51:00,72.1,69.7,29.67,ESE,117,11.0,17.0,92,0.01,,FEW009,0.35,VWS V14.01,2013-06-12 13:51:00,
2013-06-12 08:56:00,72.4,69.3,29.68,SSE,159,13.0,17.0,90,0.01,,CLR,0.35,VWS V14.01,2013-06-12 13:56:00,
2013-06-12 09:01:00,72.6,69.5,29.67,ESE,121,12.0,14.0,90,0.00,,CLR,0.35,VWS V14.01,2013-06-12 14:01:00,
2013-06-12 09:06:00,73.0,69.2,29.67,SE,125,10.0,15.0,88,0.00,,CLR,0.35,VWS V14.01,2013-06-12 14:06:00,
2013-06-12 09:11:00,73.1,69.3,29.68,SE,138,7.0,15.0,88,0.00,,CLR,0.35,VWS V14.01,2013-06-12 14:11:00,
2013-06-12 09:16:00,73.3,69.2,29.67,SE,145,8.0,15.0,87,0.00,,CLR,0.35,VWS V14.01,2013-06-12 14:16:00,
2013-06-12 09:21:00,73.1,69.3,29.67,ESE,120,9.0,15.0,88,0.00,,CLR,0.35,VWS V14.01,2013-06-12 14:21:00,
2013-06-12 09:26:00,73.1,69.3,29.67,East,91,9.0,15.0,88,0.00,,CLR,0.35,VWS V14.01,2013-06-12 14:26:00,
2013-06-12 09:31:00,73.2,69.8,29.67,ESE,120,6.0,8.0,89,0.00,,CLR,0.35,VWS V14.01,2013-06-12 14:31:00,
2013-06-12 09:36:00,73.4,69.6,29.67,SE,134,5.0,11.0,88,0.00,,CLR,0.35,VWS V14.01,2013-06-12 14:36:00,
2013-06-12 09:41:00,73.5,69.4,29.67,ESE,114,7.0,11.0,87,0.00,,CLR,0.35,VWS V14.01,2013-06-12 14:41:00,
2013-06-12 09:46:00,73.5,69.7,29.67,ESE,116,7.0,11.0,88,0.00,,CLR,0.35,VWS V14.01,2013-06-12 14:46:00,
2013-06-12 09:51:00,73.4,69.3,29.68,ESE,109,4.0,11.0,87,0.00,,CLR,0.35,VWS V14.01,2013-06-12 14:51:00,
2013-06-12 09:56:00,73.4,69.3,29.67,ESE,115,5.0,11.0,87,0.00,,CLR,0.35,VWS V14.01,2013-06-12 14:56:00,
2013-06-12 10:01:00,73.4,69.6,29.67,East,93,1.0,3.0,88,0.00,,OVC036,0.35,VWS V14.01,2013-06-12 15:01:00,
2013-06-12 10:06:00,73.3,69.9,29.67,East,91,2.0,4.0,89,0.00,,OVC036,0.35,VWS V14.01,2013-06-12 15:06:00,
2013-06-12 10:11:00,73.3,69.9,29.67,ESE,103,1.0,4.0,89,0.00,,OVC036,0.35,VWS V14.01,2013-06-12 15:11:00,
2013-06-12 10:16:00,73.3,69.5,29.67,ESE,120,3.0,5.0,88,0.00,,OVC036,0.35,VWS V14.01,2013-06-12 15:16:00,
2013-06-12 10:21:00,73.4,69.6,29.67,ESE,109,3.0,5.0,88,0.00,,OVC036,0.35,VWS V14.01,2013-06-12 15:21:00,
2013-06-12 10:26:00,73.5,69.7,29.67,East,92,2.0,6.0,88,0.00,,OVC036,0.35,VWS V14.01,2013-06-12 15:26:00,
2013-06-12 10:31:00,73.7,69.9,29.67,East,91,1.0,3.0,88,0.00,,OVC036,0.35,VWS V14.01,2013-06-12 15:31:00,
2013-06-12 10:36:00,74.0,70.6,29.67,East,86,2.0,6.0,89,0.00,,OVC036,0.35,VWS V14.01,2013-06-12 15:36:00,
2013-06-12 10:41:00,74.4,70.3,29.67,East,82,3.0,7.0,87,0.00,,OVC036,0.35,VWS V14.01,2013-06-12 15:41:00,
2013-06-12 10:46:00,74.9,70.8,29.67,East,90,7.0,7.0,87,0.00,,OVC036,0.35,VWS V14.01,2013-06-12 15:46:00,
2013-06-12 10:51:00,75.3,71.8,29.66,NE,47,1.0,7.0,89,0.00,,OVC036,0.35,VWS V14.01,2013-06-12 15:51:00,
2013-06-12 10:56:00,75.6,71.1,29.66,ENE,78,3.0,7.0,86,0.00,,OVC036,0.35,VWS V14.01,2013-06-12 15:56:00,
2013-06-12 11:01:00,75.4,70.6,29.66,NNW,328,1.0,1.0,85,0.00,,OVC032,0.35,VWS V14.01,2013-06-12 16:01:00,
2013-06-12 11:06:00,75.0,70.5,29.67,NE,55,1.0,3.0,86,0.00,,OVC032,0.35,VWS V14.01,2013-06-12 16:06:00,
2013-06-12 11:11:00,74.6,70.5,29.67,NE,53,0.0,4.0,87,0.00,,OVC032,0.35,VWS V14.01,2013-06-12 16:11:00,
2013-06-12 11:16:00,74.3,70.2,29.67,NE,37,0.0,4.0,87,0.00,,OVC032,0.35,VWS V14.01,2013-06-12 16:16:00,
2013-06-12 11:21:00,74.2,70.1,29.67,ENE,63,0.0,4.0,87,0.00,,OVC032,0.35,VWS V14.01,2013-06-12 16:21:00,
2013-06-12 11:26:00,74.2,70.1,29.67,East,84,2.0,4.0,87,0.00,,OVC032,0.35,VWS V14.01,2013-06-12 16:26:00,
2013-06-12 11:31:00,74.1,70.0,29.67,ENE,73,2.0,6.0,87,0.00,,OVC032,0.35,VWS V14.01,2013-06-12 16:31:00,
2013-06-12 11:36:00,74.1,70.0,29.67,ENE,60,0.0,6.0,87,0.00,,OVC032,0.35,VWS V14.01,2013-06-12 16:36:00,
2013-06-12 11:41:00,74.1,70.3,29.67,ENE,58,0.0,6.0,88,0.00,,OVC032,0.35,VWS V14.01,2013-06-12 16:41:00,
2013-06-12 11:46:00,74.2,70.4,29.67,NE,56,2.0,6.0,88,0.00,,OVC032,0.35,VWS V14.01,2013-06-12 16:46:00,
2013-06-12 11:51:00,74.3,70.2,29.66,ESE,104,4.0,7.0,87,0.00,,OVC032,0.35,VWS V14.01,2013-06-12 16:51:00,
2013-06-12 11:56:00,74.6,70.8,29.66,East,94,7.0,7.0,88,0.00,,FEW019,0.35,VWS V14.01,2013-06-12 16:56:00,
2013-06-12 12:01:00,75.0,70.9,29.66,East,98,8.0,8.0,87,0.00,,FEW019,0.35,VWS V14.01,2013-06-12 17:01:00,
2013-06-12 12:06:00,75.2,70.7,29.66,ESE,104,3.0,8.0,86,0.00,,FEW019,0.35,VWS V14.01,2013-06-12 17:06:00,
2013-06-12 12:11:00,75.7,71.6,29.66,East,81,2.0,8.0,87,0.00,,FEW019,0.35,VWS V14.01,2013-06-12 17:11:00,
2013-06-12 12:16:00,76.3,71.8,29.66,East,94,0.0,8.0,86,0.00,,FEW019,0.35,VWS V14.01,2013-06-12 17:16:00,
2013-06-12 12:21:00,76.6,72.1,29.66,North,7,0.0,8.0,86,0.00,,FEW019,0.35,VWS V14.01,2013-06-12 17:21:00,
2013-06-12 12:26:00,77.0,71.8,29.65,ENE,65,0.0,8.0,84,0.00,,FEW019,0.35,VWS V14.01,2013-06-12 17:26:00,
2013-06-12 12:31:00,77.6,72.0,29.65,East,87,0.0,0.0,83,0.00,,FEW019,0.35,VWS V14.01,2013-06-12 17:31:00,
2013-06-12 12:36:00,78.2,71.9,29.65,NNW,343,0.0,2.0,81,0.00,,FEW019,0.35,VWS V14.01,2013-06-12 17:36:00,
2013-06-12 12:41:00,79.1,73.5,29.65,ENE,60,0.0,2.0,83,0.00,,FEW019,0.35,VWS V14.01,2013-06-12 17:41:00,
2013-06-12 12:46:00,79.5,72.8,29.64,East,96,8.0,8.0,80,0.00,,FEW019,0.35,VWS V14.01,2013-06-12 17:46:00,
2013-06-12 12:51:00,79.5,73.9,29.64,ENE,58,0.0,8.0,83,0.00,,FEW019,0.35,VWS V14.01,2013-06-12 17:51:00,
2013-06-12 12:56:00,80.1,74.1,29.63,NE,44,1.0,8.0,82,0.00,,SCT060,0.35,VWS V14.01,2013-06-12 17:56:00,
2013-06-12 13:01:00,80.5,73.0,29.63,ENE,58,0.0,1.0,78,0.00,,SCT060,0.35,VWS V14.01,2013-06-12 18:01:00,
2013-06-12 13:06:00,81.0,73.1,29.63,NNW,328,1.0,4.0,77,0.00,,SCT060,0.35,VWS V14.01,2013-06-12 18:06:00,
2013-06-12 13:11:00,81.4,74.3,29.63,SW,226,1.0,5.0,79,0.00,,SCT060,0.35,VWS V14.01,2013-06-12 18:11:00,
2013-06-12 13:16:00,81.4,73.1,29.63,ENE,63,1.0,7.0,76,0.00,,SCT060,0.35,VWS V14.01,2013-06-12 18:16:00,
2013-06-12 13:21:00,81.5,73.2,29.63,ENE,67,1.0,7.0,76,0.00,,SCT060,0.35,VWS V14.01,2013-06-12 18:21:00,
2013-06-12 13:26:00,82.1,74.9,29.63,NE,47,1.0,7.0,79,0.00,,BKN026,0.35,VWS V14.01,2013-06-12 18:26:00,
2013-06-12 13:31:00,82.4,74.1,29.63,NE,53,2.0,2.0,76,0.00,,BKN026,0.35,VWS V14.01,2013-06-12 18:31:00,
2013-06-12 13:36:00,82.4,73.3,29.63,East,101,2.0,6.0,74,0.00,,BKN026,0.35,VWS V14.01,2013-06-12 18:36:00,
2013-06-12 13:41:00,82.4,75.2,29.63,SSE,163,2.0,6.0,79,0.00,,BKN026,0.35,VWS V14.01,2013-06-12 18:41:00,
2013-06-12 13:46:00,82.5,73.0,29.63,NE,54,1.0,6.0,73,0.00,,BKN026,0.35,VWS V14.01,2013-06-12 18:46:00,
2013-06-12 13:51:00,82.1,73.4,29.63,ESE,120,1.0,6.0,75,0.00,,BKN026,0.35,VWS V14.01,2013-06-12 18:51:00,
2013-06-12 13:56:00,81.8,73.5,29.63,NNE,30,0.0,6.0,76,0.00,,BKN026,0.35,VWS V14.01,2013-06-12 18:56:00,
2013-06-12 14:01:00,81.1,72.4,29.63,ESE,103,2.0,4.0,75,0.00,,OVC022,0.35,VWS V14.01,2013-06-12 19:01:00,
2013-06-12 14:06:00,80.3,72.8,29.63,ENE,72,0.0,5.0,78,0.00,,OVC022,0.35,VWS V14.01,2013-06-12 19:06:00,
2013-06-12 14:11:00,79.9,73.2,29.63,NE,55,0.0,5.0,80,0.00,,OVC022,0.35,VWS V14.01,2013-06-12 19:11:00,
2013-06-12 14:16:00,79.6,72.9,29.63,NNE,33,0.0,5.0,80,0.00,,OVC022,0.35,VWS V14.01,2013-06-12 19:16:00,
2013-06-12 14:21:00,79.3,72.6,29.63,NE,36,0.0,5.0,80,0.00,,OVC022,0.35,VWS V14.01,2013-06-12 19:21:00,
2013-06-12 14:26:00,79.0,72.7,29.63,NNE,20,0.0,5.0,81,0.00,,OVC022,0.35,VWS V14.01,2013-06-12 19:26:00,
2013-06-12 14:31:00,78.7,72.8,29.63,NNE,29,0.0,1.0,82,0.00,,OVC022,0.35,VWS V14.01,2013-06-12 19:31:00,
2013-06-12 14:36:00,78.6,72.7,29.63,ENE,70,1.0,4.0,82,0.00,,OVC022,0.35,VWS V14.01,2013-06-12 19:36:00,
2013-06-12 14:41:00,78.3,72.7,29.63,NE,44,0.0,4.0,83,0.00,,OVC060,0.35,VWS V14.01,2013-06-12 19:41:00,
2013-06-12 14:46:00,78.2,72.6,29.63,NNE,23,0.0,4.0,83,0.00,,OVC060,0.35,VWS V14.01,2013-06-12 19:46:00,
2013-06-12 14:51:00,77.8,72.6,29.63,NE,41,0.0,4.0,84,0.00,,OVC060,0.35,VWS V14.01,2013-06-12 19:51:00,
2013-06-12 14:56:00,77.6,72.7,29.62,NE,37,0.0,4.0,85,0.00,,OVC060,0.35,VWS V14.01,2013-06-12 19:56:00,
2013-06-12 15:01:00,77.6,72.4,29.63,NE,49,0.0,1.0,84,0.00,,OVC060,0.35,VWS V14.01,2013-06-12 20:01:00,
2013-06-12 15:06:00,77.7,72.5,29.63,NE,46,0.0,2.0,84,0.00,,OVC060,0.35,VWS V14.01,2013-06-12 20:06:00,
2013-06-12 15:11:00,78.5,73.6,29.62,NE,41,1.0,2.0,85,0.00,,OVC060,0.35,VWS V14.01,2013-06-12 20:11:00,
2013-06-12 15:16:00,79.5,74.2,29.62,North,359,3.0,8.0,84,0.00,,OVC060,0.35,VWS V14.01,2013-06-12 20:16:00,
2013-06-12 15:21:00,80.2,73.8,29.62,NNE,23,1.0,8.0,81,0.00,,OVC060,0.35,VWS V14.01,2013-06-12 20:21:00,
2013-06-12 15:26:00,80.2,73.5,29.62,NE,47,0.0,8.0,80,0.00,,OVC060,0.35,VWS V14.01,2013-06-12 20:26:00,
2013-06-12 15:31:00,80.2,73.1,29.62,NNE,32,0.0,0.0,79,0.00,,OVC060,0.35,VWS V14.01,2013-06-12 20:31:00,
2013-06-12 15:36:00,80.4,73.3,29.62,NE,38,0.0,5.0,79,0.00,,OVC060,0.35,VWS V14.01,2013-06-12 20:36:00,
2013-06-12 15:41:00,80.2,73.1,29.62,NE,41,0.0,5.0,79,0.00,,OVC060,0.35,VWS V14.01,2013-06-12 20:41:00,
2013-06-12 15:46:00,79.7,73.0,29.61,NNE,23,0.0,5.0,80,0.00,,OVC060,0.35,VWS V14.01,2013-06-12 20:46:00,
2013-06-12 15:51:00,79.2,72.9,29.61,NE,44,0.0,5.0,81,0.00,,OVC060,0.35,VWS V14.01,2013-06-12 20:51:00,
2013-06-12 15:56:00,78.9,72.9,29.60,ENE,65,1.0,5.0,82,0.00,,OVC060,0.35,VWS V14.01,2013-06-12 20:56:00,
2013-06-12 16:01:00,78.6,72.7,29.61,NNE,29,0.0,2.0,82,0.00,,BKN085,0.35,VWS V14.01,2013-06-12 21:01:00,
2013-06-12 16:06:00,78.5,72.6,29.60,NNE,19,0.0,2.0,82,0.00,,BKN085,0.35,VWS V14.01,2013-06-12 21:06:00,
2013-06-12 16:11:00,78.2,71.9,29.60,NNE,23,3.0,5.0,81,0.00,,BKN085,0.35,VWS V14.01,2013-06-12 21:11:00,
2013-06-12 16:16:00,78.0,72.1,29.60,NNE,23,1.0,5.0,82,0.00,,BKN085,0.35,VWS V14.01,2013-06-12 21:16:00,
2013-06-12 16:21:00,77.9,72.0,29.59,NE,37,6.0,7.0,82,0.00,,BKN085,0.35,VWS V14.01,2013-06-12 21:21:00,
2013-06-12 16:26:00,77.9,72.3,29.58,NE,40,2.0,7.0,83,0.00,,BKN085,0.35,VWS V14.01,2013-06-12 21:26:00,
2013-06-12 16:31:00,77.9,72.3,29.59,NE,49,0.0,0.0,83,0.00,,BKN085,0.35,VWS V14.01,2013-06-12 21:31:00,
2013-06-12 16:36:00,78.0,72.1,29.60,NE,45,0.0,6.0,82,0.00,,BKN038,0.35,VWS V14.01,2013-06-12 21:36:00,
2013-06-12 16:41:00,77.8,72.2,29.60,North,356,0.0,6.0,83,0.00,,BKN038,0.35,VWS V14.01,2013-06-12 21:41:00,
2013-06-12 16:46:00,77.5,72.3,29.60,NE,41,0.0,6.0,84,0.00,,BKN022,0.35,VWS V14.01,2013-06-12 21:46:00,
2013-06-12 16:51:00,77.1,71.9,29.59,NE,40,1.0,7.0,84,0.00,,BKN022,0.35,VWS V14.01,2013-06-12 21:51:00,
2013-06-12 16:56:00,76.6,71.4,29.58,ENE,60,1.0,7.0,84,0.00,,BKN022,0.35,VWS V14.01,2013-06-12 21:56:00,
2013-06-12 17:01:00,76.4,71.2,29.59,NE,47,0.0,3.0,84,0.00,,OVC022,0.35,VWS V14.01,2013-06-12 22:01:00,
2013-06-12 17:06:00,76.2,71.4,29.59,ENE,57,1.0,3.0,85,0.00,,OVC022,0.35,VWS V14.01,2013-06-12 22:06:00,
2013-06-12 17:11:00,75.8,71.7,29.58,NE,37,0.0,4.0,87,0.00,,OVC027,0.35,VWS V14.01,2013-06-12 22:11:00,
2013-06-12 17:16:00,75.4,71.3,29.58,NE,41,0.0,4.0,87,0.00,,OVC027,0.35,VWS V14.01,2013-06-12 22:16:00,
2013-06-12 17:21:00,74.9,70.8,29.59,NE,36,1.0,5.0,87,0.01,,OVC027,0.36,VWS V14.01,2013-06-12 22:21:00,
2013-06-12 17:26:00,74.5,71.1,29.58,NE,49,0.0,5.0,89,0.02,,OVC027,0.37,VWS V14.01,2013-06-12 22:26:00,
2013-06-12 17:31:00,73.8,70.7,29.58,NNE,16,1.0,1.0,90,0.12,,OVC110,0.47,VWS V14.01,2013-06-12 22:31:00,
2013-06-12 17:36:00,73.4,71.3,29.59,NNE,13,0.0,2.0,93,0.32,,OVC110,0.67,VWS V14.01,2013-06-12 22:36:00,
2013-06-12 17:41:00,72.8,70.7,29.59,NW,312,0.0,6.0,93,0.61,,-RA,0.96,VWS V14.01,2013-06-12 22:41:00,
2013-06-12 17:46:00,72.3,70.5,29.58,ENE,63,0.0,6.0,94,0.67,,-RA,1.02,VWS V14.01,2013-06-12 22:46:00,
2013-06-12 17:51:00,71.8,69.7,29.58,SE,135,5.0,9.0,93,0.67,,-RA,1.02,VWS V14.01,2013-06-12 22:51:00,
2013-06-12 17:56:00,71.8,69.7,29.58,East,93,0.0,9.0,93,0.67,,-RA,1.02,VWS V14.01,2013-06-12 22:56:00,
2013-06-12 18:01:00,71.8,70.3,29.60,WNW,287,2.0,2.0,95,0.68,,,1.03,VWS V14.01,2013-06-12 23:01:00,
2013-06-12 18:06:00,71.0,68.2,29.61,NNW,341,5.0,15.0,91,0.70,,,1.05,VWS V14.01,2013-06-12 23:06:00,
2013-06-12 18:11:00,69.9,68.1,29.62,NNE,20,5.0,15.0,94,0.71,,,1.06,VWS V14.01,2013-06-12 23:11:00,
2013-06-12 18:16:00,69.7,68.2,29.62,NE,44,4.0,15.0,95,0.71,,,1.06,VWS V14.01,2013-06-12 23:16:00,
2013-06-12 18:21:00,69.4,67.6,29.62,NNE,20,5.0,15.0,94,0.71,,,1.06,VWS V14.01,2013-06-12 23:21:00,
2013-06-12 18:26:00,68.9,67.1,29.62,North,358,2.0,15.0,94,0.71,,,1.06,VWS V14.01,2013-06-12 23:26:00,
2013-06-12 18:31:00,68.7,67.2,29.63,North,6,4.0,4.0,95,0.60,,,1.06,VWS V14.01,2013-06-12 23:31:00,
2013-06-12 18:36:00,68.7,67.2,29.64,NNE,23,6.0,6.0,95,0.60,,,1.06,VWS V14.01,2013-06-12 23:36:00,
2013-06-12 18:41:00,68.8,67.6,29.63,NNE,18,2.0,7.0,96,0.60,,,1.06,VWS V14.01,2013-06-12 23:41:00,
2013-06-12 18:46:00,69.0,67.5,29.63,North,4,5.0,14.0,95,0.60,,,1.06,VWS V14.01,2013-06-12 23:46:00,
2013-06-12 18:51:00,69.0,67.5,29.63,NNE,20,0.0,14.0,95,0.60,,OVC060,1.06,VWS V14.01,2013-06-12 23:51:00,
2013-06-12 18:56:00,68.9,67.4,29.63,NNW,347,3.0,14.0,95,0.60,,OVC065,1.06,VWS V14.01,2013-06-12 23:56:00,
2013-06-12 19:01:00,68.8,67.3,29.65,North,9,4.0,4.0,95,0.03,,OVC070,1.06,VWS V14.01,2013-06-13 00:01:00,
2013-06-12 19:06:00,68.8,67.3,29.65,NNE,15,3.0,6.0,95,0.03,,OVC070,1.06,VWS V14.01,2013-06-13 00:06:00,
2013-06-12 19:11:00,68.6,66.2,29.65,NNE,19,2.0,7.0,92,0.03,,OVC070,1.06,VWS V14.01,2013-06-13 00:11:00,
2013-06-12 19:16:00,68.6,66.2,29.65,NE,41,2.0,7.0,92,0.03,,OVC070,1.06,VWS V14.01,2013-06-13 00:16:00,
2013-06-12 19:21:00,68.6,65.9,29.66,North,6,4.0,11.0,91,0.03,,OVC070,1.06,VWS V14.01,2013-06-13 00:21:00,
2013-06-12 19:26:00,68.6,65.9,29.66,NNE,17,1.0,11.0,91,0.03,,OVC070,1.06,VWS V14.01,2013-06-13 00:26:00,
2013-06-12 19:31:00,68.5,66.1,29.66,NNE,33,2.0,5.0,92,0.00,,OVC050,1.06,VWS V14.01,2013-06-13 00:31:00,
2013-06-12 19:36:00,68.1,65.4,29.67,North,7,5.0,10.0,91,0.00,,OVC050,1.06,VWS V14.01,2013-06-13 00:36:00,
2013-06-12 19:41:00,67.7,65.3,29.67,North,356,8.0,13.0,92,0.00,,OVC050,1.06,VWS V14.01,2013-06-13 00:41:00,
2013-06-12 19:46:00,67.5,65.1,29.67,NNE,27,5.0,13.0,92,0.00,,OVC050,1.06,VWS V14.01,2013-06-13 00:46:00,
2013-06-12 19:51:00,67.1,64.7,29.66,NW,319,2.0,13.0,92,0.00,,-RA,1.06,VWS V14.01,2013-06-13 00:51:00,
2013-06-12 19:56:00,66.8,64.7,29.66,NNW,345,6.0,13.0,93,0.00,,-RA,1.06,VWS V14.01,2013-06-13 00:56:00,
2013-06-12 20:01:00,66.5,64.4,29.67,NE,51,9.0,13.0,93,0.00,,OVC025,1.06,VWS V14.01,2013-06-13 01:01:00,
2013-06-12 20:06:00,66.3,64.5,29.67,NNW,347,7.0,13.0,94,0.00,,OVC026,1.06,VWS V14.01,2013-06-13 01:06:00,
2013-06-12 20:11:00,66.3,64.5,29.67,North,1,11.0,14.0,94,0.00,,OVC026,1.06,VWS V14.01,2013-06-13 01:11:00,
2013-06-12 20:16:00,66.3,64.5,29.67,NNE,30,5.0,16.0,94,0.00,,-RA,1.06,VWS V14.01,2013-06-13 01:16:00,
2013-06-12 20:21:00,66.3,64.8,29.68,North,356,12.0,16.0,95,0.00,,-RA,1.06,VWS V14.01,2013-06-13 01:21:00,
2013-06-12 20:26:00,66.4,64.9,29.68,NW,318,2.0,19.0,95,0.00,,-RA,1.06,VWS V14.01,2013-06-13 01:26:00,
2013-06-12 20:31:00,66.4,64.9,29.68,North,349,7.0,8.0,95,0.00,,-RA,1.06,VWS V14.01,2013-06-13 01:31:00,
2013-06-12 20:36:00,66.5,65.0,29.69,NNE,19,2.0,20.0,95,0.01,,RA,1.07,VWS V14.01,2013-06-13 01:36:00,
2013-06-12 20:41:00,66.5,65.0,29.69,NNE,20,8.0,20.0,95,0.01,,-RA,1.07,VWS V14.01,2013-06-13 01:41:00,
2013-06-12 20:46:00,66.4,64.9,29.69,NNW,346,10.0,20.0,95,0.01,,-RA,1.07,VWS V14.01,2013-06-13 01:46:00,
2013-06-12 20:51:00,66.3,64.8,29.69,North,356,7.0,20.0,95,0.01,,-RA,1.07,VWS V14.01,2013-06-13 01:51:00,
2013-06-12 20:56:00,66.2,64.7,29.70,NE,47,4.0,20.0,95,0.01,,RA,1.07,VWS V14.01,2013-06-13 01:56:00,
2013-06-12 21:01:00,66.1,64.6,29.70,NE,41,5.0,8.0,95,0.01,,RA,1.07,VWS V14.01,2013-06-13 02:01:00,
2013-06-12 21:06:00,66.0,64.5,29.70,NNW,340,9.0,18.0,95,0.01,,RA,1.07,VWS V14.01,2013-06-13 02:06:00,
2013-06-12 21:11:00,65.9,64.4,29.71,North,349,5.0,18.0,95,0.01,,RA,1.07,VWS V14.01,2013-06-13 02:11:00,
2013-06-12 21:16:00,65.9,64.4,29.71,NNW,327,2.0,18.0,95,0.01,,RA,1.07,VWS V14.01,2013-06-13 02:16:00,
2013-06-12 21:21:00,65.8,64.3,29.71,NNE,25,4.0,18.0,95,0.01,,RA,1.07,VWS V14.01,2013-06-13 02:21:00,
2013-06-12 21:26:00,65.9,64.1,29.71,NW,308,10.0,18.0,94,0.01,,RA,1.07,VWS V14.01,2013-06-13 02:26:00,
2013-06-12 21:31:00,65.8,64.0,29.72,North,349,10.0,10.0,94,0.01,,RA,1.07,VWS V14.01,2013-06-13 02:31:00,
2013-06-12 21:36:00,65.8,63.7,29.73,NNW,346,4.0,12.0,93,0.01,,BKN033,1.07,VWS V14.01,2013-06-13 02:36:00,
2013-06-12 21:41:00,65.8,63.7,29.73,NNE,26,3.0,12.0,93,0.01,,BKN033,1.07,VWS V14.01,2013-06-13 02:41:00,
2013-06-12 21:46:00,65.8,63.4,29.73,NE,54,3.0,13.0,92,0.01,,BKN033,1.07,VWS V14.01,2013-06-13 02:46:00,
2013-06-12 21:51:00,65.8,63.4,29.74,NNW,338,6.0,13.0,92,0.01,,BKN033,1.07,VWS V14.01,2013-06-13 02:51:00,
2013-06-12 21:56:00,65.9,63.5,29.74,NNE,20,4.0,13.0,92,0.01,,BKN033,1.07,VWS V14.01,2013-06-13 02:56:00,
2013-06-12 22:01:00,65.9,63.2,29.75,ENE,76,3.0,4.0,91,0.00,,SCT110,1.07,VWS V14.01,2013-06-13 03:01:00,
2013-06-12 22:06:00,65.9,63.2,29.75,NNE,15,11.0,13.0,91,0.00,,SCT110,1.07,VWS V14.01,2013-06-13 03:06:00,
2013-06-12 22:11:00,65.8,63.1,29.76,ENE,65,5.0,13.0,91,0.00,,SCT110,1.07,VWS V14.01,2013-06-13 03:11:00,
2013-06-12 22:16:00,65.7,63.0,29.76,North,360,3.0,13.0,91,0.00,,SCT110,1.07,VWS V14.01,2013-06-13 03:16:00,
2013-06-12 22:21:00,65.6,62.9,29.77,NNE,16,3.0,13.0,91,0.00,,SCT110,1.07,VWS V14.01,2013-06-13 03:21:00,
2013-06-12 22:26:00,65.6,62.9,29.78,NE,42,3.0,13.0,91,0.00,,SCT110,1.07,VWS V14.01,2013-06-13 03:26:00,
2013-06-12 22:31:00,65.5,62.5,29.78,NNE,16,6.0,11.0,90,0.00,,SCT110,1.07,VWS V14.01,2013-06-13 03:31:00,
2013-06-12 22:36:00,65.4,62.4,29.78,North,6,6.0,11.0,90,0.00,,SCT110,1.07,VWS V14.01,2013-06-13 03:36:00,
2013-06-12 22:41:00,65.1,61.8,29.79,NE,36,5.0,11.0,89,0.00,,SCT110,1.07,VWS V14.01,2013-06-13 03:41:00,
2013-06-12 22:46:00,64.9,61.6,29.79,North,7,2.0,11.0,89,0.00,,SCT110,1.07,VWS V14.01,2013-06-13 03:46:00,
2013-06-12 22:51:00,64.6,61.3,29.79,NNE,12,5.0,11.0,89,0.00,,SCT110,1.07,VWS V14.01,2013-06-13 03:51:00,
2013-06-12 22:56:00,64.4,60.8,29.79,North,6,4.0,11.0,88,0.00,,SCT110,1.07,VWS V14.01,2013-06-13 03:56:00,
2013-06-12 23:01:00,64.2,60.6,29.79,NE,46,2.0,2.0,88,0.00,,SCT110,1.07,VWS V14.01,2013-06-13 04:01:00,
2013-06-12 23:06:00,64.1,60.5,29.80,NNE,20,2.0,13.0,88,0.00,,BKN110,1.07,VWS V14.01,2013-06-13 04:06:00,
2013-06-12 23:11:00,64.0,60.1,29.80,NNW,341,5.0,13.0,87,0.00,,BKN110,1.07,VWS V14.01,2013-06-13 04:11:00,
2013-06-12 23:16:00,64.1,60.2,29.81,NNE,16,4.0,13.0,87,0.00,,BKN110,1.07,VWS V14.01,2013-06-13 04:16:00,
2013-06-12 23:21:00,64.1,60.5,29.81,NNE,16,1.0,13.0,88,0.00,,BKN110,1.07,VWS V14.01,2013-06-13 04:21:00,
2013-06-12 23:26:00,64.1,60.2,29.81,North,11,2.0,13.0,87,0.00,,BKN110,1.07,VWS V14.01,2013-06-13 04:26:00,
2013-06-12 23:31:00,64.0,60.1,29.81,North,351,4.0,7.0,87,0.00,,BKN110,1.07,VWS V14.01,2013-06-13 04:31:00,
2013-06-12 23:36:00,64.0,60.1,29.82,NNE,23,3.0,8.0,87,0.00,,BKN110,1.07,VWS V14.01,2013-06-13 04:36:00,
2013-06-12 23:41:00,64.0,59.7,29.81,North,1,1.0,9.0,86,0.00,,BKN110,1.07,VWS V14.01,2013-06-13 04:41:00,
2013-06-12 23:46:00,64.0,59.7,29.81,NNE,18,4.0,9.0,86,0.00,,BKN110,1.07,VWS V14.01,2013-06-13 04:46:00,
2013-06-12 23:51:00,63.9,59.6,29.82,NNE,18,2.0,11.0,86,0.00,,BKN110,1.07,VWS V14.01,2013-06-13 04:51:00,
2013-06-12 23:56:00,63.9,59.6,29.82,North,3,5.0,11.0,86,0.00,,FEW110,1.07,VWS V14.01,2013-06-13 04:56:00,